User: anonymous   Login
Location: Caltech
(34.1382°N, 118.1253°W)
Time: 13:51:51
(UTC-07:00)
Language:

Uribyol 2 - Orbit

View from above orbital plane
View from above orbital plane
View from above satellite
View from above satellite

Ground track
Ground track

The orbit data is extracted from the following two-line orbital elements,

1 22828U 93061F   17202.07237295 -.00000003 +00000-0 +16188-4 0  9990
2 22828 098.7997 166.8946 0009654 184.8460 175.2630 14.30641186210784
Epoch (UTC): 21 July 2017 01:44:13
Eccentricity: 0.0009654
inclination: 98.7997°
perigee height: 782 km
apogee height: 796 km
right ascension of ascending node: 166.8946°
argument of perigee: 184.8460°
revolutions per day: 14.30641186
mean anomaly at epoch: 175.2630°
orbit number at epoch: 21078

The dashed part of the orbit path shows where the satellite is in the earth's shadow,  

DLR